Кулар

Россия / Республика Саха (Якутия)     70°38′17″N   134°20′51″E
темп.,
°C
ветер,
м/с
пор.,
м/с
влажн.,
%
обл.,
%
осадки,
мм/ч
давл.,
гПа
погр.,
м
28 ноября, вс
вс2801:00−25в0094100 0.0 101110
04:00−25зсз1195100 0.0 101313
07:00−23зсз1198100 0.1 101448
10:00−22з1299100 0.4 101571
13:00−22зюз2399100 0.3 1016129
16:00−21зюз2699100 0.5 1017180
19:00−21з4799100 0.2 1018253
22:00−21з4899100 0.4 1019272
29 ноября, пн
пн2901:00−22зюз369992 0.1 1019155
04:00−23зюз2310095 0.2 101974
07:00−24юз2210082 0.1 102023
10:00−27юз2210095 0.1 102012
13:00−29юз22100100 0.0 102011
16:00−33ююз2210074 0.0 102110
19:00−34юз2210087 0.0 102110
22:00−34ююз2210084 0.0 10219
30 ноября, вт
вт3001:00−33юз2210099 0.0 10219
04:00−32юз21100100 0.0 102111
07:00−32юз2210097 0.0 102013
10:00−33юз22100100 0.1 102012
13:00−34юз2210095 0.0 102013
16:00−33юз2210095 0.0 102017
19:00−33юз22100100 0.0 102016
22:00−33юз22100100 0.0 102015
1 декабря, ср
ср101:00−34юз2210090 0.0 102012
04:00−33юз2110098 0.0 102113
07:00−33юз11100100 0.0 102113
10:00−34ююз2110077 0.0 10229
13:00−35ююз2110062 0.0 10229
16:00−35ююз1110073 0.0 10239
19:00−36ююз2210069 0.0 10259
22:00−36ю2210059 0.0 10269
2 декабря, чт
чт201:00−37ю2210076 0.0 10269
04:00−37ююз2210066 0.0 10269
07:00−37ю1110079 0.0 10259
10:00−38ю2210034 0.0 10249
13:00−39ю2210031 0.0 10239
16:00−40ю1110024 0.0 10219
19:00−40ю1110038 0.0 10209
22:00−40ю1110036 0.0 10189